"Pseudo-MPEC" for P11VjQ1

Created 2024 Jun 17 10:22:10 UT using Find_Orb

Click here for an explanation of pseudo-MPECs

 
 Astrometry: 
     P11VjQ1  C2014 11 22KJ/]+Ze/9l#;Gvb0N0ntI\rIBQt$j\):EfY+crR@hy*ck:1a4[waF51
     P11VjQ1  C2014 11 22*?lYw\oQnFQM,n^4B7PLu@f6.G4o+-b+x3eO'2Z/N/V+mGWGvw33F51
     P11VjQ1  C2014 11 22+Z!AstrometryU@bq^GoL3ySy3=b%sX0@%gredacted;gd!iJ5j%F51
     P11VjQ1  C2014 11 22U,PnTy@AxM@2j7Nod,*2GKhfLW6!oK-y?ax_\wgcW97#w`ac.3QtF51
     P11VjQ1  C2014 12 209.dUc3'q220:oa'KJ8eaB9%*gqTa0%f8GQ$!c4;2vv^F4#bSE!2)F51
     P11VjQ1  C2014 12 20Wy1:e(?+.1R_5-#IiSEM4PgOqS3NR3:lRBe]*P5CewyBFhvE;P3EF51
     P11VjQ1  C2016 01 13Fu=-.E_u_+N[J1e!b?xbbclickxP^wlh1k4efQsNP2$j,KhqkirSF51
     P11VjQ1  C2016 01 13bJ;Jlb8Pe)dPJo#R60j.;P4`s`:\e/,g!IAmy,Q7!g:-g*18Z'iHF51
     P11VjQ1  C2016 01 13gb/'xN7+;l.7:-Ck%ZFmOS4YKFr,M;.nWqvVEg;a3IxMVur60]_LF51
     P11VjQ1  C2016 01 13KrQKD]x_Fm==CMcdh$w7V%GQw]aptvFsMq=eJW1qt(n!kXio/K4'F51
     P11VjQ1  C2020 05 14Wf?\9s29l_1c$5@5,noc2^3A^VoB?4X2aDL-)7p.L7w2_o2UYDmlF51
     P11VjQ1  C2020 05 14ef*ufq_h)q)MC614,s`wpr]@^lS\9y%]wE]I*%RV.SD7h+0((Z!?F51
     P11VjQ1  C2020 05 14T9e-P%,R^j)*'Rha_Do?xn0@y@H[T#U/q@pGy#y^G\BN5d5Nc_maF51
     P11VjQ1  C2021 06 08S#[,w)gQav:X=1%phXT5:P=O;-#$FJ?SMT_$7Vx#JVt55j#myl.OF51
     P11VjQ1  C2021 06 08d]DK;q?uJmOcqgi'?F,v@A1eyYdEgm/$l4?H+9D/,MLWnp94yd7tF51
     P11VjQ1  C2021 06 08Os.@sug(Yqs(V2LfrSl*Hbw6%vpp)rD8l=gYyA9p;uM'!mTT_8VHF51
     P11VjQ1  C2021 06 085l'1Fw[PI%h;v/NvQglFbsMcf[rLsNN.AUsg,/=Uh_JeIxa@-F('F51
     P11VjQ1  C2021 06 09MFmcs\F!Eg0r/[KJfu55tPi:]ivdpvXYn+;-;(=gkZIr+s^[bMU8F51
     P11VjQ1  C2021 06 09pIu_y`Uvr5j#+_0B(g3b6+GcC(Kp7cf:_%:E[j=p4@Ut+U3BOO35F51
     P11VjQ1  C2021 06 09PvXYH)J1oepOYo0IfZ]a51ljMYfW.yl^vJqDSv/#aRtOCvZ#elIUF51
     P11VjQ1  C2021 06 09s(u*juvNK!I.vXe78q1h3.*/BaNh0)b8Yl\.CdYDd(,:`r+yipA#F51
     P11VjQ1  C2023 06 17X%f!f;iPx+hWR$eOhxsS%GAQStA#;D\@d]`Y6XfXir\/GJ-tWhyYF51
     P11VjQ1  C2023 06 17cQf]LiRJKL4b2nCH/Zo'$(@fxTU1=`wT2f,\8XKTjswly`nABMI9F51
     P11VjQ1  C2023 06 17KnGhere[%dATi$j[\;i4AL3'R\#NcjV,_#gA.A9bd=-ySHhY]/_JF51
     P11VjQ1  C2023 06 17k7`HeIN/%ZH\!g#0bpLL3Y%f\Gy?1^CO*$:-R$ggLIhm'RUwY[e8F51
     P11VjQ1* C2024 06 08`QN.+G?iku?Oy36+k#L';e.GA_VJsqVG%aox*:M#CkY1\78TS@T;F51
     P11VjQ1  C2024 06 08e[q6.hl/GSXy7L;o,`)rB@0Q^=qdqf),7?nZ1$[6[0c;%XHe;ta[F51
     P11VjQ1  C2024 06 08^8s!c7LOA3g`[!L9\DPq.m33%5xA/`GRv3NkT;2oQgujJ?tANg.;F51
     P11VjQ1  C2024 06 08mC:4,T6S,fUT^H.yZWPRuLLoGT]Vo*yc,=._$Oo)SforNk,cI7eUF51
     P11VjQ1 KC2024 06 11.33046 22 20 34.25 +19 24 37.1    ~6BA7 22.6 RVNEOCP291
     P11VjQ1 KC2024 06 11.34057 22 20 34.33 +19 24 41.5    ~6BA7 22.3 RVNEOCP291
     P11VjQ1 3C2024 06 112k'[8[rn+nntTf]9j2bp;;y,H/9'eKrF`0\Y%g[M[0'!mtk%]tR;T14
     P11VjQ1 3C2024 06 11ZT1Dm8/d/%Nk8S2sZH];IP6;/M1]%Z7bMOKFm4%A=Olj/:NKdX;YT14
     P11VjQ1 3C2024 06 11BBj%!Jw[a9cjdc]yB$Y_SK)=@1B*j7=fY-kZ1ipr(3bGvEr#3W18T14
     P11VjQ1 1C2024 06 16:NXLpp-Y\@@'QJpIS)eTY0.QhAbyYWM8)wTS^hi$.pX`A)cNfO\FT12
     P11VjQ1 1C2024 06 169jQ'1nDKS6T*explanationEaB3PuY[uby#NN_Ng)ZInNO9y])-gT12

Station data:
(291) LPL/Spacewatch II  (N31.961669 W111.599905)  US/Arizona.  Observers J.
   V. Scotti, R. S. McMillan. 1.8-m f/2.7 reflector + CCD.
(F51) Pan-STARRS 1, Haleakala  (N20.707234 W156.255910)  US/Hawaii.
   Observers J. Bulger, T. Lowe, A. Schultz, M. Willman. Measurers K.
   Chambers, S. Chastel, T. de Boer, L. Denneau, J. Fairlamb, H. Flewelling,
   M. Huber, C.-C. Lin, E. Magnier, Y. Ramanjooloo, R. Wainscoat, R. Weryk.
   1.8-m Ritchey-Chrétien + CCD.
(T12) Mauna Kea-UH/Tholen NEO Follow-Up (2.24-m)  (N19.822991 W155.469434)
   US/Hawaii.  Observer R. Weryk. 2.24-m f/10.1 University of Hawaii
   reflector.
(T14) Mauna Kea-UH/Tholen NEO Follow-Up (CFHT)  (N19.825252 W155.468876)
   US/Hawaii.  Observer R. Weryk. 3.6-m Canada-France-Hawaii Telescope.

Orbital elements:  P11VjQ1
   Perihelion 2026 Apr 5.53972 +/- 0.00139 TT = 12:57:12 (JD 2461136.03972)
Epoch 2024 Jun 16.0 TT = JDT 2460477.5   Ju: 0.0181              AutoNEOCP
M 306.19224254 +/- 0.00011          (J2000 ecliptic)
n   0.08170768 +/- 1.52e-8          Peri.  139.02923 +/- 0.00011
a   5.25969755 +/- 6.52e-7          Node   253.51982 +/- 0.000025
e   0.0523458 +/- 3.3e-7            Incl.   26.90712 +/- 0.000010
P  12.06                   H 14.27  G  0.15   U  0.7
q 4.98437409 +/- 2.32e-6    Q 5.53502100 +/- 1.11e-6
35 of 36 observations 2014 Nov. 22-2024 June 16; mean residual 0".15
Residuals in arcseconds: 
141122 F51( .10-  .72+)   200514 F51  .11-  .13+    230617 F51  .08+  .05+    
141122 F51  .07+  .03-    210608 F51  .03-  .21+    240608 F51  .07-  .01+    
141122 F51  .26-  .52+    210608 F51  .09+  .03-    240608 F51  .00   .01-    
141122 F51  .04-  .58+    210608 F51  .11-  .12+    240608 F51  .01+  .11-    
141220 F51  .17+  .05+    210608 F51  .07+  .10+    240608 F51  .00   .02-    
141220 F51  .18+  .10+    210609 F51  .01+  .03+    240611 291  .04-  .16+    
160113 F51  .01-  .24-    210609 F51  .09+  .12+    240611 291  .12+  .51+    
160113 F51  .06-  .09+    210609 F51  .27-  .33+    240611 T14  .00   .01-    
160113 F51  .07+  .12-    210609 F51  .18-  .10+    240611 T14  .03+  .03-    
160113 F51  .01+  .05-    230617 F51  .06-  .02+    240611 T14  .04+  .03-    
200514 F51  .06+  .13+    230617 F51  .07+  .26+    240616 T12  .09-  .04-    
200514 F51  .02-  .01-    230617 F51  .04+  .08+    240616 T12  .04+  .01-    

Ephemerides (geocentric):
Date (UTC) HH   RA             Dec           delta  r     elong  mag " sig PA
---- --------  ------------   ------------  ------ ------ -----  --- --------
2024 06 17 10  22 21 04.093   +20 04 01.33  4.8350 5.1065  99.8 21.9 6.8m  64
2024 06 17 11  22 21 04.207   +20 04 17.06  4.8344 5.1065  99.8 21.9 6.8m  64
2024 06 17 12  22 21 04.320   +20 04 32.78  4.8339 5.1065  99.8 21.9 6.8m  64
2024 06 17 13  22 21 04.432   +20 04 48.49  4.8333 5.1064  99.9 21.9 6.8m  64
2024 06 17 14  22 21 04.542   +20 05 04.20  4.8328 5.1064  99.9 21.9 6.8m  64
2024 06 17 15  22 21 04.651   +20 05 19.90  4.8322 5.1064  99.9 21.9 6.8m  64
2024 06 17 16  22 21 04.759   +20 05 35.59  4.8316 5.1064 100.0 21.9 6.8m  64
2024 06 17 17  22 21 04.865   +20 05 51.28  4.8311 5.1064 100.0 21.9 6.9m  64
2024 06 17 18  22 21 04.970   +20 06 06.95  4.8305 5.1064 100.0 21.9 6.9m  64
2024 06 17 19  22 21 05.075   +20 06 22.63  4.8300 5.1064 100.1 21.9 6.9m  64
2024 06 17 20  22 21 05.177   +20 06 38.30  4.8294 5.1063 100.1 21.9 6.9m  64
2024 06 17 21  22 21 05.279   +20 06 53.96  4.8288 5.1063 100.1 21.9 6.9m  64
2024 06 17 22  22 21 05.379   +20 07 09.61  4.8283 5.1063 100.2 21.9 6.9m  64
2024 06 17 23  22 21 05.478   +20 07 25.26  4.8277 5.1063 100.2 21.9 6.9m  64
2024 06 18 00  22 21 05.576   +20 07 40.90  4.8271 5.1063 100.2 21.9 6.9m  64
2024 06 18 01  22 21 05.673   +20 07 56.53  4.8266 5.1063 100.3 21.9 6.9m  64
2024 06 18 02  22 21 05.768   +20 08 12.16  4.8260 5.1063 100.3 21.9 6.9m  64
2024 06 18 03  22 21 05.862   +20 08 27.78  4.8255 5.1062 100.3 21.9 6.9m  64
2024 06 18 04  22 21 05.955   +20 08 43.39  4.8249 5.1062 100.4 21.9 6.9m  64
2024 06 18 05  22 21 06.047   +20 08 59.00  4.8243 5.1062 100.4 21.9 6.9m  64
2024 06 18 06  22 21 06.137   +20 09 14.60  4.8238 5.1062 100.4 21.9 6.9m  64
2024 06 18 07  22 21 06.226   +20 09 30.19  4.8232 5.1062 100.4 21.9 6.9m  64
2024 06 18 08  22 21 06.314   +20 09 45.78  4.8227 5.1062 100.5 21.9 7.0m  64
2024 06 18 09  22 21 06.400   +20 10 01.36  4.8221 5.1062 100.5 21.9 7.0m  64
2024 06 18 10  22 21 06.486   +20 10 16.93  4.8215 5.1061 100.5 21.9 7.0m  64
2024 06 18 11  22 21 06.570   +20 10 32.50  4.8210 5.1061 100.6 21.9 7.0m  64
2024 06 18 12  22 21 06.653   +20 10 48.06  4.8204 5.1061 100.6 21.9 7.0m  64
2024 06 18 13  22 21 06.734   +20 11 03.61  4.8199 5.1061 100.6 21.9 7.0m  64
2024 06 18 14  22 21 06.815   +20 11 19.16  4.8193 5.1061 100.7 21.9 7.0m  64
2024 06 18 15  22 21 06.894   +20 11 34.70  4.8187 5.1061 100.7 21.9 7.0m  64
2024 06 18 16  22 21 06.972   +20 11 50.23  4.8182 5.1061 100.7 21.9 7.0m  64
2024 06 18 17  22 21 07.048   +20 12 05.75  4.8176 5.1060 100.8 21.9 7.0m  63
2024 06 18 18  22 21 07.124   +20 12 21.27  4.8171 5.1060 100.8 21.9 7.0m  63
2024 06 18 19  22 21 07.198   +20 12 36.79  4.8165 5.1060 100.8 21.9 7.0m  63
2024 06 18 20  22 21 07.271   +20 12 52.29  4.8160 5.1060 100.9 21.9 7.0m  63
2024 06 18 21  22 21 07.343   +20 13 07.79  4.8154 5.1060 100.9 21.9 7.0m  63
2024 06 18 22  22 21 07.413   +20 13 23.28  4.8148 5.1060 100.9 21.9 7.0m  63
2024 06 18 23  22 21 07.482   +20 13 38.77  4.8143 5.1060 101.0 21.9 7.0m  63
2024 06 19 00  22 21 07.550   +20 13 54.25  4.8137 5.1059 101.0 21.9 7.1m  63
2024 06 19 01  22 21 07.617   +20 14 09.72  4.8132 5.1059 101.0 21.9 7.1m  63
2024 06 19 02  22 21 07.682   +20 14 25.18  4.8126 5.1059 101.1 21.9 7.1m  63
2024 06 19 03  22 21 07.746   +20 14 40.64  4.8120 5.1059 101.1 21.9 7.1m  63
2024 06 19 04  22 21 07.809   +20 14 56.09  4.8115 5.1059 101.1 21.9 7.1m  63
2024 06 19 05  22 21 07.871   +20 15 11.54  4.8109 5.1059 101.2 21.9 7.1m  63
2024 06 19 06  22 21 07.931   +20 15 26.97  4.8104 5.1059 101.2 21.9 7.1m  63
2024 06 19 07  22 21 07.990   +20 15 42.40  4.8098 5.1059 101.2 21.9 7.1m  63
2024 06 19 08  22 21 08.048   +20 15 57.83  4.8093 5.1058 101.3 21.9 7.1m  63
2024 06 19 09  22 21 08.105   +20 16 13.24  4.8087 5.1058 101.3 21.9 7.1m  63